Location: Hradec Kralove
(50.2170°N, 15.8330°E)
Time: 08:15:59
(UTC+01:00)

X-37B - Pass Details

Date: 13 December 2022
Orbit: 277 x 277 km, 45.0° (Epoch: 01 November)

Event Time Altitude Azimuth Distance (km) Brightness Sun altitude
Rises 18:34:22 0° 260° (W) 1,916 5.5 -24.4°
Reaches altitude 10° 18:36:32 10° 242° (WSW) 1,102 3.8 -24.8°
Enters shadow 18:36:40 11° 240° (WSW) 1,059 3.7 -24.8°
